TimePST,TemperatureF,Dew PointF,Humidity,Sea Level PressureIn,VisibilityMPH,Wind Direction,Wind SpeedMPH,Gust SpeedMPH,PrecipitationIn,Events,Conditions,WindDirDegrees,DateUTC
12:53 AM,46.9,43.0,86,30.11,10.0,Calm,Calm,-,N/A,,Clear,0,2012-12-09 08:53:00
1:53 AM,46.0,42.1,86,30.12,10.0,ENE,3.5,-,N/A,,Clear,60,2012-12-09 09:53:00
2:53 AM,46.0,42.1,86,30.12,10.0,Calm,Calm,-,N/A,,Scattered Clouds,0,2012-12-09 10:53:00
3:53 AM,45.0,41.0,86,30.13,10.0,Calm,Calm,-,N/A,,Mostly Cloudy,0,2012-12-09 11:53:00
4:53 AM,45.0,39.9,82,30.14,10.0,NNE,3.5,-,N/A,,Mostly Cloudy,30,2012-12-09 12:53:00
5:53 AM,44.1,39.9,85,30.14,10.0,ENE,3.5,-,N/A,,Mostly Cloudy,60,2012-12-09 13:53:00
6:53 AM,43.0,37.9,82,30.16,10.0,NE,4.6,-,N/A,,Mostly Cloudy,50,2012-12-09 14:53:00
7:53 AM,44.1,39.0,82,30.17,10.0,ENE,3.5,-,N/A,,Mostly Cloudy,70,2012-12-09 15:53:00
8:53 AM,53.1,46.9,80,30.19,10.0,Calm,Calm,-,N/A,,Scattered Clouds,0,2012-12-09 16:53:00
9:53 AM,57.9,45.0,62,30.20,10.0,Calm,Calm,-,N/A,,Scattered Clouds,0,2012-12-09 17:53:00
10:53 AM,57.9,46.9,67,30.19,10.0,WSW,4.6,-,N/A,,Scattered Clouds,240,2012-12-09 18:53:00
11:53 AM,60.1,45.0,57,30.17,10.0,WSW,4.6,-,N/A,,Scattered Clouds,250,2012-12-09 19:53:00
12:53 PM,61.0,46.9,60,30.13,10.0,West,6.9,-,N/A,,Scattered Clouds,260,2012-12-09 20:53:00
1:53 PM,62.1,45.0,53,30.12,10.0,SW,4.6,-,N/A,,Scattered Clouds,230,2012-12-09 21:53:00
2:53 PM,64.0,44.1,48,30.12,10.0,SW,3.5,-,N/A,,Scattered Clouds,230,2012-12-09 22:53:00
3:53 PM,64.9,46.9,52,30.12,10.0,NNE,9.2,-,N/A,,Scattered Clouds,30,2012-12-09 23:53:00
4:53 PM,61.0,46.0,58,30.13,10.0,NNE,10.4,-,N/A,,Partly Cloudy,20,2012-12-10 00:53:00
5:53 PM,59.0,43.0,55,30.14,10.0,ENE,6.9,-,N/A,,Partly Cloudy,70,2012-12-10 01:53:00
6:53 PM,57.9,43.0,58,30.16,10.0,ENE,5.8,-,N/A,,Clear,70,2012-12-10 02:53:00
7:53 PM,57.9,43.0,58,30.16,10.0,East,4.6,-,N/A,,Clear,90,2012-12-10 03:53:00
8:53 PM,60.1,42.1,51,30.17,10.0,Calm,Calm,-,N/A,,Clear,0,2012-12-10 04:53:00
9:53 PM,60.1,41.0,49,30.19,10.0,ESE,3.5,-,N/A,,Clear,110,2012-12-10 05:53:00
10:53 PM,59.0,42.1,53,30.20,10.0,ENE,13.8,-,N/A,,Clear,60,2012-12-10 06:53:00
11:53 PM,61.0,41.0,48,30.20,10.0,ENE,13.8,-,N/A,,Clear,70,2012-12-10 07:53:00